| time (UTC) | temp F | wind direction | speed MPH | gust MPH | rain 1hr in | rain 24hr in | rain mn in | humidity % | barometer mb |
| 20260510130016 | 68 | 0.0 | 0.0 | 0.00 | 0.00 | 0.00 | 96 | 1018.6 | |
| 20260510125019 | 66 | 0.0 | 0.0 | 0.00 | 0.00 | 0.00 | 97 | 1018.6 | |
| 20260510124022 | 65 | 0.0 | 0.0 | 0.00 | 0.00 | 0.00 | 98 | 1018.6 | |
| 20260510123025 | 63 | 0.0 | 0.0 | 0.00 | 0.00 | 0.00 | 98 | 1018.6 | |
| 20260510122028 | 62 | 0.0 | 0.0 | 0.00 | 0.00 | 0.00 | 98 | 1018.5 | |
| 20260510121052 | 61 | 0.0 | 0.0 | 0.00 | 0.00 | 0.00 | 99 | 1018.4 | |
| 20260510120037 | 60 | 0.0 | 0.0 | 0.00 | 0.00 | 0.00 | 99 | 1018.4 | |
| 20260510115020 | 60 | 0.0 | 0.0 | 0.00 | 0.00 | 0.00 | 99 | 1018.3 | |
| 20260510114023 | 59 | 0.0 | 0.0 | 0.00 | 0.00 | 0.00 | 98 | 1018.1 | |
| 20260510113046 | 59 | 0.0 | 0.0 | 0.00 | 0.00 | 0.00 | 98 | 1018.1 | |
| 20260510112029 | 59 | 0.0 | 0.0 | 0.00 | 0.00 | 0.00 | 98 | 1018.1 | |
| 20260510111032 | 59 | 0.0 | 0.0 | 0.00 | 0.00 | 0.00 | 98 | 1018.1 | |
| 20260510110017 | 59 | 0.0 | 0.0 | 0.00 | 0.00 | 0.00 | 97 | 1017.7 | |
| 20260510105021 | 59 | 0.0 | 0.0 | 0.00 | 0.00 | 0.00 | 97 | 1017.6 | |
| 20260510104024 | 59 | 0.0 | 0.0 | 0.00 | 0.00 | 0.00 | 97 | 1017.2 | |
| 20260510103027 | 59 | 0.0 | 0.0 | 0.00 | 0.00 | 0.00 | 96 | 1017.2 | |
| 20260510102030 | 59 | 0.0 | 0.0 | 0.00 | 0.00 | 0.00 | 96 | 1017.1 | |
| 20260510101015 | 59 | 0.0 | 0.0 | 0.00 | 0.00 | 0.00 | 96 | 1017.1 | |
| 20260510100018 | 59 | 0.0 | 0.0 | 0.00 | 0.00 | 0.00 | 96 | 1016.9 | |
| 20260510095021 | 59 | 0.0 | 0.0 | 0.00 | 0.00 | 0.00 | 96 | 1016.9 | |
| 20260510094019 | 60 | 0.0 | 0.0 | 0.00 | 0.00 | 0.00 | 96 | 1016.7 | |
| 20260510093016 | 60 | 0.0 | 0.0 | 0.00 | 0.00 | 0.00 | 95 | 1016.4 | |
| 20260510092031 | 60 | 0.0 | 0.0 | 0.00 | 0.00 | 0.00 | 94 | 1016.3 | |
| 20260510091016 | 60 | 0.0 | 0.0 | 0.00 | 0.00 | 0.00 | 94 | 1016.2 | |
| 20260510090019 | 61 | 0.0 | 0.0 | 0.00 | 0.00 | 0.00 | 94 | 1016.2 | |
| 20260510085023 | 61 | 0.0 | 0.0 | 0.00 | 0.00 | 0.00 | 94 | 1016.4 | |
| 20260510084025 | 61 | 0.0 | 0.0 | 0.00 | 0.00 | 0.00 | 93 | 1016.2 | |
| 20260510083029 | 62 | 0.0 | 0.0 | 0.00 | 0.00 | 0.00 | 93 | 1016.0 | |
| 20260510082032 | 62 | 0.0 | 0.0 | 0.00 | 0.00 | 0.00 | 94 | 1016.0 | |
| 20260510081017 | 62 | 293 | 0.0 | 1.0 | 0.00 | 0.00 | 0.00 | 94 | 1016.2 |
| 20260510080041 | 62 | 0.0 | 0.0 | 0.00 | 0.00 | 0.00 | 94 | 1015.9 | |
| 20260510075023 | 62 | 0.0 | 0.0 | 0.00 | 0.00 | 0.00 | 95 | 1016.0 | |
| 20260510074027 | 62 | 0.0 | 0.0 | 0.00 | 0.00 | 0.00 | 92 | 1015.9 | |
| 20260510073030 | 62 | 0.0 | 0.0 | 0.00 | 0.00 | 0.00 | 92 | 1015.9 | |
| 20260510072015 | 62 | 0.0 | 0.0 | 0.00 | 0.00 | 0.00 | 91 | 1016.0 | |
| 20260510071018 | 62 | 0.0 | 0.0 | 0.00 | 0.00 | 0.00 | 90 | 1016.2 | |
| 20260510070022 | 61 | 0.0 | 0.0 | 0.00 | 0.00 | 0.00 | 89 | 1016.2 | |
| 20260510065025 | 61 | 0.0 | 0.0 | 0.00 | 0.00 | 0.00 | 87 | 1016.2 | |
| 20260510064028 | 61 | 0.0 | 0.0 | 0.00 | 0.00 | 0.00 | 87 | 1015.9 | |
| 20260510063025 | 60 | 0.0 | 0.0 | 0.00 | 0.00 | 0.00 | 84 | 1015.8 | |
| 20260510062016 | 60 | 0.0 | 0.0 | 0.00 | 0.00 | 0.00 | 83 | 1015.7 | |
| 20260510061019 | 60 | 0.0 | 0.0 | 0.00 | 0.00 | 0.00 | 82 | 1015.7 | |
| 20260510060016 | 61 | 0.0 | 0.0 | 0.00 | 0.00 | 0.00 | 82 | 1015.7 | |
| 20260510055025 | 61 | 0.0 | 0.0 | 0.00 | 0.00 | 0.00 | 81 | 1015.9 | |
| 20260510054028 | 61 | 0.0 | 0.0 | 0.00 | 0.00 | 0.00 | 81 | 1015.7 | |
| 20260510053032 | 61 | 0.0 | 0.0 | 0.00 | 0.00 | 0.00 | 80 | 1015.5 | |
| 20260510052057 | 61 | 0.0 | 0.0 | 0.00 | 0.00 | 0.00 | 81 | 1015.5 | |
| 20260510051020 | 62 | 0.0 | 0.0 | 0.00 | 0.00 | 0.00 | 79 | 1015.5 | |
| 20260510050023 | 62 | 0.0 | 0.0 | 0.00 | 0.00 | 0.00 | 78 | 1015.5 | |
| 20260510045026 | 62 | 0.0 | 0.0 | 0.00 | 0.00 | 0.00 | 78 | 1015.4 | |
| 20260510044029 | 62 | 0.0 | 0.0 | 0.00 | 0.00 | 0.00 | 78 | 1015.4 | |
| 20260510043032 | 63 | 0.0 | 0.0 | 0.00 | 0.00 | 0.00 | 78 | 1015.4 | |
| 20260510042018 | 63 | 0.0 | 0.0 | 0.00 | 0.00 | 0.00 | 77 | 1015.4 | |
| 20260510041021 | 63 | 0.0 | 0.0 | 0.00 | 0.00 | 0.00 | 75 | 1015.5 | |
| 20260510040024 | 64 | 0.0 | 0.0 | 0.00 | 0.00 | 0.00 | 75 | 1015.5 | |
| 20260510035027 | 64 | 0.0 | 0.0 | 0.00 | 0.00 | 0.00 | 73 | 1015.7 | |
| 20260510034030 | 65 | 0.0 | 0.0 | 0.00 | 0.00 | 0.00 | 71 | 1015.7 | |
| 20260510033035 | 65 | 0.0 | 0.0 | 0.00 | 0.00 | 0.00 | 70 | 1015.6 | |
| 20260510032019 | 66 | 0.0 | 0.0 | 0.00 | 0.00 | 0.00 | 69 | 1015.5 | |
| 20260510031042 | 66 | 0.0 | 0.0 | 0.00 | 0.00 | 0.00 | 68 | 1015.5 | |
| 20260510030025 | 67 | 0.0 | 0.0 | 0.00 | 0.00 | 0.00 | 66 | 1015.5 | |
| 20260510025022 | 67 | 0.0 | 0.0 | 0.00 | 0.00 | 0.00 | 64 | 1015.3 | |
| 20260510024019 | 68 | 0.0 | 0.0 | 0.00 | 0.00 | 0.00 | 62 | 1015.3 | |
| 20260510023017 | 68 | 0.0 | 0.0 | 0.00 | 0.00 | 0.00 | 61 | 1015.2 | |
| 20260510022020 | 69 | 0.0 | 0.0 | 0.00 | 0.00 | 0.00 | 59 | 1015.1 | |
| 20260510021018 | 70 | 0.0 | 0.0 | 0.00 | 0.00 | 0.00 | 58 | 1014.9 | |
| 20260510020020 | 71 | 0.0 | 0.0 | 0.00 | 0.00 | 0.00 | 56 | 1014.7 | |
| 20260510015023 | 71 | 0.0 | 0.0 | 0.00 | 0.00 | 0.00 | 55 | 1014.4 | |
| 20260510014026 | 72 | 0.0 | 0.0 | 0.00 | 0.00 | 0.00 | 55 | 1014.2 | |
| 20260510013030 | 73 | 0.0 | 0.0 | 0.00 | 0.00 | 0.00 | 48 | 1014.1 | |
| 20260510012033 | 74 | 0.0 | 0.0 | 0.00 | 0.00 | 0.00 | 45 | 1014.0 | |
| 20260510011017 | 76 | 0.0 | 0.0 | 0.00 | 0.00 | 0.00 | 42 | 1013.9 | |
| 20260510010021 | 78 | 0.0 | 0.0 | 0.00 | 0.00 | 0.00 | 41 | 1013.8 | |
| 20260510005024 | 80 | 0.0 | 0.0 | 0.00 | 0.00 | 0.00 | 39 | 1013.5 | |
| 20260510004028 | 82 | 0.0 | 0.0 | 0.00 | 0.00 | 0.00 | 37 | 1013.3 | |
| 20260510003030 | 84 | 0.0 | 0.0 | 0.00 | 0.00 | 0.00 | 35 | 1013.2 | |
| 20260510002035 | 87 | 0.0 | 0.0 | 0.00 | 0.00 | 0.00 | 32 | 1013.1 | |
| 20260510001031 | 89 | 270 | 1.0 | 2.0 | 0.00 | 0.00 | 0.00 | 31 | 1013.0 |
| 20260510000016 | 93 | 270 | 1.0 | 2.0 | 0.00 | 0.00 | 0.00 | 28 | 1013.0 |
| 20260509235020 | 95 | 182 | 1.0 | 2.0 | 0.00 | 0.00 | 0.00 | 27 | 1012.9 |
| 20260509234023 | 95 | 0.0 | 0.0 | 0.00 | 0.00 | 0.00 | 27 | 1012.8 | |
| 20260509233026 | 95 | 263 | 0.0 | 2.0 | 0.00 | 0.00 | 0.00 | 27 | 1012.9 |
| 20260509232043 | 96 | 293 | 0.0 | 2.0 | 0.00 | 0.00 | 0.00 | 26 | 1012.9 |
| 20260509231020 | 97 | 153 | 1.0 | 3.0 | 0.00 | 0.00 | 0.00 | 26 | 1012.9 |
| 20260509230017 | 97 | 99 | 1.0 | 2.0 | 0.00 | 0.00 | 0.00 | 25 | 1012.6 |
| 20260509225020 | 98 | 54 | 1.0 | 2.0 | 0.00 | 0.00 | 0.00 | 25 | 1012.6 |
| 20260509224023 | 97 | 93 | 1.0 | 3.0 | 0.00 | 0.00 | 0.00 | 24 | 1012.5 |
| 20260509223026 | 97 | 265 | 3.0 | 4.0 | 0.00 | 0.00 | 0.00 | 21 | 1012.5 |
| 20260509222035 | 99 | 270 | 1.0 | 3.0 | 0.00 | 0.00 | 0.00 | 25 | 1012.6 |
| 20260509221032 | 98 | 180 | 0.0 | 2.0 | 0.00 | 0.00 | 0.00 | 27 | 1012.6 |
| 20260509220017 | 98 | 252 | 1.0 | 3.0 | 0.00 | 0.00 | 0.00 | 24 | 1012.7 |
| 20260509215020 | 98 | 224 | 1.0 | 3.0 | 0.00 | 0.00 | 0.00 | 25 | 1012.7 |
| 20260509214024 | 97 | 122 | 2.0 | 4.0 | 0.00 | 0.00 | 0.00 | 24 | 1012.8 |
| 20260509213027 | 97 | 257 | 2.0 | 4.0 | 0.00 | 0.00 | 0.00 | 24 | 1012.9 |
| 20260509212030 | 98 | 293 | 0.0 | 2.0 | 0.00 | 0.00 | 0.00 | 25 | 1012.9 |
| 20260509211035 | 98 | 218 | 2.0 | 3.0 | 0.00 | 0.00 | 0.00 | 25 | 1012.9 |
| 20260509210018 | 96 | 243 | 1.0 | 2.0 | 0.00 | 0.00 | 0.00 | 27 | 1012.9 |
| 20260509205021 | 95 | 272 | 2.0 | 4.0 | 0.00 | 0.00 | 0.00 | 27 | 1013.0 |
| 20260509204024 | 94 | 282 | 2.0 | 4.0 | 0.00 | 0.00 | 0.00 | 29 | 1013.1 |
| 20260509203027 | 93 | 270 | 2.0 | 3.0 | 0.00 | 0.00 | 0.00 | 29 | 1013.2 |
| 20260509202031 | 94 | 14 | 2.0 | 3.0 | 0.00 | 0.00 | 0.00 | 30 | 1013.3 |
| 20260509201016 | 94 | 235 | 2.0 | 3.0 | 0.00 | 0.00 | 0.00 | 29 | 1013.3 |
| 20260509200039 | 94 | 245 | 2.0 | 4.0 | 0.00 | 0.00 | 0.00 | 29 | 1013.3 |
| 20260509195022 | 93 | 269 | 3.0 | 4.0 | 0.00 | 0.00 | 0.00 | 29 | 1013.3 |
| 20260509194019 | 94 | 165 | 3.0 | 4.0 | 0.00 | 0.00 | 0.00 | 30 | 1013.5 |
| 20260509193016 | 94 | 301 | 2.0 | 3.0 | 0.00 | 0.00 | 0.00 | 30 | 1013.5 |
| 20260509192031 | 94 | 239 | 1.0 | 3.0 | 0.00 | 0.00 | 0.00 | 30 | 1013.6 |
| 20260509191016 | 92 | 266 | 2.0 | 5.0 | 0.00 | 0.00 | 0.00 | 32 | 1013.6 |
| 20260509190020 | 94 | 276 | 3.0 | 5.0 | 0.00 | 0.00 | 0.00 | 29 | 1013.5 |
| 20260509185022 | 93 | 328 | 1.0 | 2.0 | 0.00 | 0.00 | 0.00 | 31 | 1013.7 |
| 20260509184025 | 92 | 7 | 2.0 | 4.0 | 0.00 | 0.00 | 0.00 | 31 | 1013.9 |
| 20260509183029 | 91 | 282 | 3.0 | 4.0 | 0.00 | 0.00 | 0.00 | 33 | 1013.8 |
| 20260509182032 | 92 | 203 | 2.0 | 2.0 | 0.00 | 0.00 | 0.00 | 36 | 1013.9 |
| 20260509181017 | 91 | 277 | 2.0 | 4.0 | 0.00 | 0.00 | 0.00 | 35 | 1013.9 |
| 20260509180020 | 91 | 223 | 2.0 | 3.0 | 0.00 | 0.00 | 0.00 | 35 | 1014.0 |
| 20260509175023 | 91 | 177 | 2.0 | 4.0 | 0.00 | 0.00 | 0.00 | 36 | 1014.1 |
| 20260509174027 | 89 | 122 | 2.0 | 5.0 | 0.00 | 0.00 | 0.00 | 38 | 1014.1 |
| 20260509173030 | 89 | 268 | 3.0 | 5.0 | 0.00 | 0.00 | 0.00 | 37 | 1014.2 |
| 20260509172015 | 90 | 282 | 2.0 | 4.0 | 0.00 | 0.00 | 0.00 | 38 | 1014.2 |
| 20260509171018 | 89 | 274 | 1.0 | 3.0 | 0.00 | 0.00 | 0.00 | 39 | 1014.1 |
| 20260509170021 | 89 | 268 | 3.0 | 5.0 | 0.00 | 0.00 | 0.00 | 38 | 1014.1 |
| 20260509165024 | 87 | 275 | 3.0 | 5.0 | 0.00 | 0.00 | 0.00 | 39 | 1014.1 |
| 20260509164028 | 88 | 272 | 2.0 | 4.0 | 0.00 | 0.00 | 0.00 | 40 | 1014.3 |
| 20260509163025 | 88 | 260 | 3.0 | 4.0 | 0.00 | 0.00 | 0.00 | 41 | 1014.2 |
| 20260509162016 | 88 | 345 | 2.0 | 3.0 | 0.00 | 0.00 | 0.00 | 43 | 1014.2 |
| 20260509161019 | 87 | 64 | 1.0 | 4.0 | 0.00 | 0.00 | 0.00 | 45 | 1014.1 |
| 20260509160036 | 87 | 337 | 1.0 | 2.0 | 0.00 | 0.00 | 0.00 | 45 | 1013.9 |
| 20260509155025 | 85 | 326 | 2.0 | 3.0 | 0.00 | 0.00 | 0.00 | 49 | 1013.8 |
| 20260509154028 | 84 | 313 | 1.0 | 3.0 | 0.00 | 0.00 | 0.00 | 51 | 1013.8 |
| 20260509153031 | 81 | 290 | 2.0 | 5.0 | 0.00 | 0.00 | 0.00 | 52 | 1013.7 |
| 20260509152016 | 82 | 274 | 2.0 | 4.0 | 0.00 | 0.00 | 0.00 | 52 | 1013.7 |
| 20260509151019 | 81 | 252 | 3.0 | 5.0 | 0.00 | 0.00 | 0.00 | 54 | 1013.7 |
| 20260509150023 | 79 | 328 | 2.0 | 4.0 | 0.00 | 0.00 | 0.00 | 57 | 1013.8 |
| 20260509145026 | 78 | 260 | 3.0 | 5.0 | 0.00 | 0.00 | 0.00 | 59 | 1014.0 |
| 20260509144029 | 77 | 277 | 2.0 | 4.0 | 0.00 | 0.00 | 0.00 | 61 | 1014.0 |
| 20260509143032 | 75 | 274 | 2.0 | 4.0 | 0.00 | 0.00 | 0.00 | 67 | 1014.1 |
| 20260509142037 | 72 | 259 | 3.0 | 5.0 | 0.00 | 0.00 | 0.00 | 72 | 1014.1 |
| 20260509141020 | 69 | 329 | 1.0 | 4.0 | 0.00 | 0.00 | 0.00 | 79 | 1014.0 |
| 20260509140024 | 67 | 200 | 2.0 | 4.0 | 0.00 | 0.00 | 0.00 | 82 | 1013.8 |
| 20260509135027 | 66 | 273 | 3.0 | 5.0 | 0.00 | 0.00 | 0.00 | 84 | 1013.7 |
| 20260509134030 | 65 | 277 | 2.0 | 3.0 | 0.00 | 0.00 | 0.00 | 87 | 1013.6 |
| 20260509133015 | 64 | 258 | 3.0 | 4.0 | 0.00 | 0.00 | 0.00 | 88 | 1013.6 |
| 20260509132038 | 63 | 213 | 2.0 | 4.0 | 0.00 | 0.00 | 0.00 | 91 | 1013.6 |
| 20260509131021 | 62 | 0.0 | 0.0 | 0.00 | 0.00 | 0.00 | 92 | 1013.5 |